Karlovy Vary, Czech Republic

9:26 AM CEST on October 22, 2017 (GMT +0200)
Karlovy Vary

Weather History for LKKV - January, 2014

Change the Weather History Date:

Sunday, January 19, 2014

  Actual Average (EDQM) Record (EDQM)
Temperature  
Mean Temperature 37 °F -  
Max Temperature 41 °F 33 °F 48 °F (2007)
Min Temperature 33 °F 26 °F 3 °F (2017)
Degree Days  
Heating Degree Days 28    
Moisture  
Dew Point 38 °F    
Average Humidity 96    
Maximum Humidity 100    
Minimum Humidity 89    
Precipitation  
Precipitation 0.00 in - - ()
Sea Level Pressure  
Sea Level Pressure 29.57 in    
Wind  
Wind Speed 5 mph ()    
Max Wind Speed 11 mph    
Max Gust Speed -    
Visibility 2.1 miles    
Events Fog    
Averages and records for this station are not official NWS values.
T = Trace of Precipitation, MM = Missing Value Source: Averaged Metar Reports

Daily Weather History Graph

Daily Weather History Graph

Search for Another Location

Airport or City:

Trip Planner

Search our weather history database for the weather conditions in past years. The results will help you decide how hot, cold, wet, or windy it might be!

Date:

Astronomy

Jan. 19, 2014 Rise Set
Actual Time 7:58 AM CET 4:40 PM CET
Civil Twilight 7:21 AM CET 5:16 PM CET
Nautical Twilight 6:41 AM CET 5:56 PM CET
Astronomical Twilight 6:02 AM CET 6:35 PM CET
Moon 8:27 PM CET (1/19) 8:57 AM CET (1/19)
Length of Visible Light 9h 54m
Length of Day
8h 41m
Waning Gibbous, 91% of the Moon is Illuminated
Jan 19
Waning Gibbous
Jan 24
Last Quarter
Jan 30
New
Feb 6
First Quarter
Feb 15
Full

Hourly Weather History & Observations

Time (CET) Temp. Windchill Dew Point Humidity Pressure Visibility Wind Dir Wind Speed Gust Speed Precip Events Conditions
12:00 AM 34 °F - 34 °F 99%  in 4 mi ENE 6.7 mph - -   Mist
12:00 AM 33.8 °F 27.7 °F 33.8 °F 100% 29.62 in 3.7 mi East 6.9 mph - N/A   Overcast
1:00 AM 35 °F - 34 °F 93%  in 0 mi ENE 6.7 mph - - Fog Heavy Fog
1:00 AM 33.8 °F 27.7 °F 33.8 °F 100% 29.62 in 0.5 mi ENE 6.9 mph - N/A Fog Fog
2:00 AM 35 °F - 34 °F 96%  in 1 mi ENE 4.5 mph - - Fog Light Fog
2:00 AM 35.6 °F 30.7 °F 33.8 °F 93% 29.62 in 0.9 mi ENE 5.8 mph - N/A   Overcast
3:00 AM 35 °F - 35 °F 99%  in 1 mi East 6.7 mph - -   Mist
3:00 AM 35.6 °F 29.9 °F 35.6 °F 100% 29.59 in 0.7 mi East 6.9 mph - N/A   Overcast
4:00 AM 36 °F - 36 °F 98%  in 2 mi East 11.2 mph - -   Mist
4:00 AM 35.6 °F 28.6 °F 35.6 °F 100% 29.59 in 2.5 mi East 9.2 mph - N/A   Overcast
5:00 AM 37 °F - 36 °F 96%  in 2 mi East 6.7 mph - -   Mist
5:00 AM 37.4 °F 32.1 °F 35.6 °F 93% 29.59 in 2.5 mi East 6.9 mph - N/A   Overcast
6:00 AM 37 °F - 36 °F 95%  in 1 mi NE 4.5 mph - -   Mist
6:00 AM 37.4 °F 34.9 °F 35.6 °F 93% 29.56 in 0.9 mi ENE 3.5 mph - N/A   Overcast
7:00 AM 37 °F - 36 °F 95%  in 0 mi ENE 4.5 mph - - Fog Heavy Fog
7:00 AM 37.4 °F 33.8 °F 35.6 °F 93% 29.56 in 0.5 mi ENE 4.6 mph - N/A Fog Fog
7:30 AM 37.4 °F 32.8 °F 37.4 °F 100% 29.56 in 0.9 mi ENE 5.8 mph - N/A   Overcast
7:38 AM 37.4 °F 33.8 °F 37.4 °F 100% 29.56 in 0.5 mi East 4.6 mph - N/A Fog Fog
8:00 AM 37 °F - 37 °F 98%  in 0 mi South 2.2 mph - - Fog Heavy Fog
8:00 AM 37.4 °F - 37.4 °F 100% 29.56 in 0.5 mi Variable 2.3 mph - N/A Fog Fog
8:30 AM 37.4 °F 34.9 °F 37.4 °F 100% 29.56 in 0.4 mi ENE 3.5 mph - N/A Fog Fog
9:00 AM 38 °F - 37 °F 96%  in 0 mi ENE 4.5 mph - - Fog Heavy Fog
9:00 AM 37.4 °F - 37.4 °F 100% 29.56 in 0.5 mi Variable 2.3 mph - N/A Fog Fog
9:30 AM 37.4 °F - 37.4 °F 100% 29.59 in 0.7 mi Variable 2.3 mph - N/A   Mostly Cloudy
10:00 AM 39 °F - 38 °F 94%  in 1 mi ENE 4.5 mph - - Fog Light Fog
10:00 AM 39.2 °F 35.9 °F 39.2 °F 100% 29.56 in 1.2 mi ENE 4.6 mph - N/A   Mostly Cloudy
10:30 AM 39.2 °F 35.9 °F 39.2 °F 100% 29.56 in 1.9 mi NE 4.6 mph - N/A   Mostly Cloudy
11:00 AM 39 °F - 39 °F 98%  in 2 mi East 6.7 mph - -   Mist
11:00 AM 39.2 °F 35.9 °F 39.2 °F 100% 29.59 in 1.9 mi NE 4.6 mph - N/A   Mostly Cloudy
11:30 AM 39.2 °F 35.0 °F 39.2 °F 100% 29.56 in 3.1 mi ENE 5.8 mph - N/A Fog Mostly Cloudy
12:00 PM 40 °F - 39 °F 95%  in 1 mi NE 4.5 mph - -   Mist
12:00 PM 39.2 °F 35.0 °F 39.2 °F 100% 29.56 in 3.1 mi NE 5.8 mph - N/A Fog Mostly Cloudy
12:30 PM 41.0 °F 38.0 °F 39.2 °F 93% 29.56 in 3.7 mi ENE 4.6 mph - N/A Fog Patches of Fog
1:00 PM 41 °F - 39 °F 91%  in 3 mi ENE 6.7 mph - -   Mist
1:00 PM 41.0 °F 37.1 °F 39.2 °F 93% 29.56 in 3.1 mi NE 5.8 mph - N/A   Mostly Cloudy
1:30 PM 41.0 °F 37.1 °F 39.2 °F 93% 29.56 in 4.3 mi East 5.8 mph - N/A   Mostly Cloudy
2:00 PM 41 °F - 39 °F 91%  in 4 mi ENE 8.9 mph - -   Mist
2:00 PM 41.0 °F 37.1 °F 39.2 °F 93% 29.56 in 3.7 mi ENE 5.8 mph - N/A   Mostly Cloudy
2:30 PM 41.0 °F 38.0 °F 39.2 °F 93% 29.53 in 3.1 mi East 4.6 mph - N/A   Mostly Cloudy
3:00 PM 41 °F - 39 °F 90%  in 4 mi NE 6.7 mph - -   Mist
3:00 PM 41.0 °F 37.1 °F 39.2 °F 93% 29.56 in 3.1 mi NE 5.8 mph - N/A   Mostly Cloudy
3:30 PM 41.0 °F 36.4 °F 39.2 °F 93% 29.56 in 3.1 mi ENE 6.9 mph - N/A   Mostly Cloudy
4:00 PM 41 °F - 39 °F 89%  in 2 mi NE 6.7 mph - -   Mist
4:00 PM 41.0 °F 37.1 °F 39.2 °F 93% 29.56 in 2.5 mi NNE 5.8 mph - N/A   Mostly Cloudy
4:30 PM 41.0 °F 36.4 °F 39.2 °F 93% 29.56 in 3.1 mi ENE 6.9 mph - N/A   Mostly Cloudy
5:00 PM 40 °F - 38 °F 92%  in 2 mi East 6.7 mph - -   Mist
5:00 PM 41.0 °F 38.0 °F 39.2 °F 93% 29.56 in 2.5 mi ENE 4.6 mph - N/A   Mostly Cloudy
5:30 PM 41.0 °F 35.8 °F 39.2 °F 93% 29.56 in 1.9 mi ENE 8.1 mph - N/A   Mostly Cloudy
6:00 PM 40 °F - 38 °F 89%  in 2 mi East 8.9 mph - -   Mist
6:00 PM 39.2 °F 34.2 °F 37.4 °F 93% 29.56 in 1.9 mi ENE 6.9 mph - N/A   Mostly Cloudy
6:30 PM 39.2 °F 35.0 °F 37.4 °F 93% 29.56 in 1.9 mi ENE 5.8 mph - N/A   Mostly Cloudy
7:00 PM 40 °F - 38 °F 91%  in 3 mi ENE 6.7 mph - -   Mist
7:00 PM 39.2 °F 35.9 °F 39.2 °F 100% 29.56 in 3.1 mi ENE 4.6 mph - N/A   Overcast
7:30 PM 39.2 °F 35.0 °F 39.2 °F 100% 29.56 in 3.1 mi ENE 5.8 mph - N/A   Mostly Cloudy
8:00 PM 39 °F - 38 °F 95%  in 3 mi NE 6.7 mph - -   Mist
8:00 PM 39.2 °F 37.0 °F 39.2 °F 100% 29.56 in 3.1 mi NNE 3.5 mph - N/A   Mostly Cloudy
9:00 PM 40 °F - 39 °F 93%  in 2 mi NE 6.7 mph - -   Mist
9:00 PM 39.2 °F 37.0 °F 39.2 °F 100% 29.53 in 2.5 mi NNE 3.5 mph - N/A   Overcast
10:00 PM 41 °F - 39 °F 92%  in 4 mi ENE 6.7 mph - -   Mist
10:00 PM 41.0 °F 37.1 °F 39.2 °F 93% 29.53 in 3.7 mi NE 5.8 mph - N/A   Overcast
11:00 PM 41 °F - 40 °F 95%  in 3 mi NE 4.5 mph - -   Mist
11:00 PM 41.0 °F - 41.0 °F 100% 29.53 in 3.1 mi Variable 2.3 mph - N/A   Mostly Cloudy